Location: Newark
(39.4242°N, 80.8531°W)
Time: 01:00:37
(UTC+00:00)

ESTCUBE 1 - Visible Passes

Search period start: 03 April 2020 00:00
Search period end: 13 April 2020 00:00
Orbit: 646 x 661 km, 98.0° (Epoch: 02 April)

Date Brightness Start Highest point End Pass type
(mag) Time Alt. Az. Time Alt. Az. Time Alt. Az.
04 Apr ? 03:29:01 10° N 03:29:01 10° N 03:29:03 10° N visible
05 Apr ? 03:56:54 11° N 03:56:54 11° N 03:57:02 10° N visible
07 Apr ? 03:14:49 11° NNE 03:14:49 11° NNE 03:14:59 10° NNE visible
08 Apr ? 03:42:42 13° N 03:42:42 13° N 03:43:08 10° N visible
09 Apr ? 04:10:35 12° NNW 04:10:35 12° NNW 04:10:57 10° NNW visible
10 Apr ? 03:00:36 10° NNE 03:00:36 10° NNE 03:00:44 10° NNE visible
11 Apr ? 03:28:29 14° N 03:28:29 14° N 03:29:10 10° N visible
12 Apr ? 03:56:22 15° N 03:56:22 15° N 03:57:08 10° N visible
